Flag for Canada Weather past 2 weeks in Norman Wells, Northwest Territories, Canada

Now
61 °F

Passing clouds.


Feels Like: 61 °F
Forecast: 54 / 81 °F
Wind: 2 mph from North

Location: Norman Wells

Current Time: Jul 22, 2014 at 9:00:06 AM

Latest Report: Jul 22, 2014 at 8:00 AM


Visibility: 30 mi

Pressure: 29.96 "Hg

Humidity: 83%

Dew point: 55 °F

Location of Norman WellsLocation

Historic Weather in Norman Wells — Graph

°F

Norman Wells temperature yesterday

Maximum temperature yesterday: 72 °F (at 6:00 PM)
Minimum temperature yesterday: 55 °F (at 8:00 AM)
Average temperature yesterday: 62 °F

Past Weeks' High & Low Weather Summary

 TemperatureHumidityPressure
High90 °F (Jul 13, 7:00 PM)100% (Jul 17, 4:00 AM)30.06 "Hg (Jul 17, 4:00 AM)
Low37 °F (Jul 11, 5:00 AM)27% (Jul 13, 8:00 PM)29.47 "Hg (Jul 20, 4:00 AM)
Average66 °F63%29.82 "Hg
* Reported Jul 7 8:00 AM — Jul 22 8:00 AM, Norman Wells, Weather by CustomWeather, © 2014

Note: Actual official high and low records may vary slightly from our data, if they occured in-between our weather recording intervals... More about our weather records

Advertising

Norman Wells weather history for previous 24 hours

 ConditionsComfort  
Time TempWeatherWind HumidityBarometerVisibility
8:00 AM
Jul 22
61 °FPassing clouds.2 mph83%29.96 "Hg30 mi
7:00 AM57 °FScattered clouds.2 mph94%29.96 "Hg30 mi
6:00 AM52 °FScattered clouds.3 mph94%29.95 "Hg30 mi
5:00 AM55 °FPassing clouds.3 mph94%29.94 "Hg30 mi
4:00 AM63 °FPassing clouds.7 mph68%29.94 "Hg30 mi
3:00 AM63 °FPassing clouds.6 mph68%29.94 "Hg30 mi
2:00 AM61 °FPassing clouds.6 mph68%29.94 "Hg30 mi
1:00 AM63 °FScattered clouds.5 mph68%29.93 "Hg30 mi
12:00 AM63 °FScattered clouds.6 mph68%29.93 "Hg30 mi
11:00 PM
Jul 21
66 °FPassing clouds.8 mph56%29.92 "Hg30 mi
10:00 PM68 °FPassing clouds.5 mph53%29.92 "Hg30 mi
9:00 PM70 °FPassing clouds.3 mph46%29.91 "Hg30 mi
8:00 PM72 °FScattered clouds.5 mph47%29.91 "Hg30 mi
7:00 PM70 °FPartly sunny.9 mph50%29.92 "Hg30 mi
6:00 PM72 °FPartly sunny.7 mph47%29.92 "Hg30 mi
5:00 PM70 °FPartly sunny.6 mph46%29.93 "Hg30 mi
4:00 PM68 °FPartly sunny.10 mph56%29.94 "Hg30 mi
3:00 PM66 °FPartly sunny.9 mph60%29.96 "Hg30 mi
2:00 PM61 °FPartly sunny.12 mph72%29.96 "Hg30 mi
1:49 PM61 °FPartly sunny.10 mph72%29.96 "Hg30 mi
1:00 PM59 °FPartly sunny.14 mph77%29.96 "Hg30 mi
12:00 PM57 °FMostly cloudy.17 mph82%29.96 "Hg30 mi
11:00 AM55 °FScattered showers. Mostly cloudy.12 mph94%29.94 "Hg20 mi
10:00 AM55 °FLight rain. Mostly cloudy.16 mph94%29.93 "Hg15 mi
9:54 AM55 °FLight rain. Mostly cloudy.16 mph94%29.93 "Hg15 mi
9:00 AM55 °FLight rain. Fog.17 mph94%29.90 "Hg6 mi
Weather by CustomWeather, © 2014

See weather overviewHow to use our weather pages